[Iaude] MPEC F66: 2024 FC2 [a=0.92,e=0.23,i=26.7,H=22.3]

mpec at cfa.harvard.edu mpec at cfa.harvard.edu
Thu Mar 21 22:38:02 EDT 2024


M.P.E.C. 2024-F66                                Issued 2024 March 22, 02:36 UT

     The Minor Planet Electronic Circulars contain information on unusual
         minor planets, routine data on comets and natural satellites,
         and occasional editorial announcements.  They are published
    on behalf of Division F of the International Astronomical Union by the
          Minor Planet Center, Smithsonian Astrophysical Observatory,
                          Cambridge, MA 02138, U.S.A.
			  
             Prepared using the Tamkin Foundation Computer Network

                              MPC at CFA.HARVARD.EDU
            URL https://www.minorplanetcenter.net/    ISSN 1523-6714

                                    2024 FC2                                    


Observations:
     K24F02C*1C2024 03 20.24352013 30 05.699+12 53 37.18         19.39GVEF066G96
     K24F02C 1C2024 03 20.24869513 30 04.964+12 54 35.53         19.32GVEF066G96
     K24F02C 1C2024 03 20.25386813 30 04.198+12 55 33.49         18.97GVEF066G96
     K24F02C 1C2024 03 20.25903913 30 03.438+12 56 32.03         18.95GVEF066G96
     K24F02C  C2024 03 20.27353513 29 58.98 +13 00 20.3                WEF066X09
     K24F02C  C2024 03 20.28053413 29 57.88 +13 01 39.2                WEF066X09
     K24F02C KC2024 03 20.31860113 29 53.16 +13 07 35.9          19.2 GVEF066H21
     K24F02C KC2024 03 20.32053013 29 52.86 +13 07 57.4          19.3 GVEF066H21
     K24F02C  C2024 03 20.32162013 29 51.63 +13 09 18.8                WEF066X09
     K24F02C KC2024 03 20.32246013 29 52.55 +13 08 19.1          19.2 GVEF066H21
     K24F02C KC2024 03 20.32438913 29 52.27 +13 08 40.7          19.1 GVEF066H21
     K24F02C KC2024 03 20.32561113 29 52.09 +13 08 54.3          19.3 GVEF066H21
     K24F02C  C2024 03 20.32862113 29 50.54 +13 10 37.9                WEF066X09
     K24F02C KB2024 03 20.38767 13 29 43.186+13 20 29.83         19.2 RZEF066H36
     K24F02C KC2024 03 20.39043513 29 43.559+13 21 07.56         19.19GVEF066I52
     K24F02C KC2024 03 20.39146813 29 43.397+13 21 19.30         18.90GVEF066I52
     K24F02C KB2024 03 20.39188 13 29 42.518+13 21 16.60         19.2 RZEF066H36
     K24F02C KC2024 03 20.39250013 29 43.260+13 21 30.49         19.11GVEF066I52
     K24F02C KC2024 03 20.39352613 29 43.091+13 21 42.08         19.36GVEF066I52
     K24F02C KB2024 03 20.39589 13 29 41.914+13 22 01.31         19.3 RZEF066H36
     K24F02C KC2024 03 20.88361 13 28 41.26 +14 52 33.0          19.4 GXEF066K83
     K24F02C KC2024 03 20.88615 13 28 40.88 +14 53 01.0          19.5 GXEF066K83
     K24F02C KC2024 03 20.88855 13 28 40.56 +14 53 28.5          19.6 GXEF066K83
     K24F02C KC2024 03 20.94066 13 28 32.84 +15 03 14.9          19.0 rqEF066L90
     K24F02C KC2024 03 20.95027 13 28 31.35 +15 05 03.3          17.9 rqEF066L90
     K24F02C KC2024 03 20.95786913 28 30.319+15 06 27.07         19.1 GXEF066L34
     K24F02C KC2024 03 20.95980 13 28 29.88 +15 06 48.1          19.3 rqEF066L90
     K24F02C KB2024 03 20.98888 13 28 25.848+15 12 06.12         19.7 VZEF066C95
     K24F02C KB2024 03 21.01021 13 28 22.598+15 16 02.53         19.4 VZEF066C95
     K24F02C KB2024 03 21.03131 13 28 19.390+15 19 57.32         19.3 VZEF066C95
     K24F02C KC2024 03 21.08497813 28 10.632+15 29 56.47         19.5 GXEF066L34
     K24F02C KC2024 03 21.19730813 27 58.83 +15 50 34.7          19.4 GVEF066H21
     K24F02C KC2024 03 21.19945213 27 58.51 +15 50 58.4          19.3 GVEF066H21
     K24F02C KC2024 03 21.20224913 27 58.08 +15 51 29.4          19.2 GVEF066H21
     K24F02C KC2024 03 21.20504713 27 57.68 +15 52 00.7          19.2 GVEF066H21
     K24F02C KB2024 03 21.62030 13 27 00.52 +17 08 12.8          19.4 GXEF066Q06
     K24F02C KB2024 03 21.62469 13 26 59.82 +17 09 01.0          19.3 GXEF066Q06
     K24F02C KB2024 03 21.62908 13 26 59.12 +17 09 49.1          19.1 GXEF066Q06
     K24F02C KB2024 03 21.81639 13 26 31.42 +17 44 01.7          19.7 GVEF066O46
     K24F02C KB2024 03 21.82882 13 26 29.40 +17 46 16.4          19.1 GVEF066O46
     K24F02C KB2024 03 21.85723 13 26 24.85 +17 51 23.9          19.3 GVEF066O46
     K24F02C KB2024 03 21.88598 13 26 20.31 +17 56 37.2          19.2 GVEF066O46
     K24F02C KB2024 03 21.89164013 26 24.58 +17 57 19.7                XEF066958
     K24F02C KB2024 03 21.89541113 26 23.99 +17 58 00.4          19.5 GXEF066958
     K24F02C KB2024 03 21.89918213 26 23.40 +17 58 40.9          19.4 GXEF066958
     K24F02C KB2024 03 21.91333 13 26 20.86 +18 01 17.6          19.0 GXEF066G15
     K24F02C KB2024 03 21.92263 13 26 19.47 +18 02 58.2          19.9 GXEF066G15
     K24F02C KB2024 03 22.04153613 26 00.806+18 24 27.83         19.2 GXEF066K74
     K24F02C KB2024 03 22.07197913 25 56.074+18 29 57.01         19.2 GXEF066K74

Observer details:
958 Observatoire de Dax.  Observer P. Dupouy.  Measurers P. Dupouy, P. Dupouy.
    0.50-m f/4.5 Reflector + CMO.
C95 SATINO Remote Observatory, Haute Provence.  Observers D. Husar, B.
    Haeusler, C. Gerhard.  Measurers D. Husar, D. Husar, B. Haeusler, C.
    Gerhard.  0.30-m f/5.8 reflector + CMO.
G15 Magroforte Observatory, Alessandria.  Observer A. De Pieri.  Measurers A.
    De Pieri, A. De Pieri.  0.23-m f/6.7 SC + CMO.
G96 Mt. Lemmon Survey.  Observer G. J. Leonard.  Measurers T. Beuden, V. F.
    Carvajal, D. Fay, J. B. Fazekas, D. C. Fuls, A. R. Gibbs, A. D. Grauer, H.
    Groeller, J. K. Hogan, R. A. Kowalski, S. M. Larson, G. J. Leonard, D.
    Rankin, R. L. Seaman, F. C. Shelly, K. W. Wierzchos, G. J. Leonard.  1.5-m
    reflector + 10K CCD.
H21 Astronomical Research Observatory, Westfield.  Observer R. Holmes.
    Measurers T. Linder, R. Holmes, L. Horn, R. Holmes.  0.76-m f/3.0
    astrograph + CCD.
H36 Sandlot Observatory, Scranton.  Observer G. Hug.  Measurers G. Hug, G.
    Hug.  0.56-m f/4.8 reflector + CMO.
I52 Steward Observatory, Mt. Lemmon Station.  Observer R. A. Kowalski.
    Measurers T. Beuden, V. F. Carvajal, D. Fay, J. B. Fazekas, D. C. Fuls, A.
    R. Gibbs, A. D. Grauer, H. Groeller, J. K. Hogan, R. A. Kowalski, S. M.
    Larson, G. J. Leonard, D. Rankin, R. L. Seaman, F. C. Shelly, K. W.
    Wierzchos, R. A. Kowalski.  1.0-m prime focus + CCD.
K74 Muensterschwarzach Observatory, Schwarzach.  Observer C. Gerhard.
    Measurers C. Gerhard, C. Gerhard.  0.30-m f/3.75 reflector + CMO.
K83 Beppe Forti Astronomical Observatory, Montelupo.  Observers M. Tombelli,
    D. Loncao, F. Cheli, G. Interrante.  Measurers M. Tombelli, F. Bernardi,
    M. Tombelli, D. Loncao, F. Cheli, G. Interrante.  0.40-m f/8 Ritchey-
    Chretien + CCD.
L34 Galhassin Robotic Telescope, Isnello.  Observer A. Nastasi.  Measurers A.
    Nastasi, A. Nastasi.  0.40-m f/3.8 400mm Reflector + CCD.
L90 ABObservatory, Rosarno.  Observer A. Brosio.  Measurers A. Brosio, A.
    Brosio.  0.30-m f/3.9 reflector + CCD.
O46 Daocheng Glacier Observatory.  Observer Z. Wang.  Measurers Z. Wang, Z.
    Wang.  0.25-m f/8 reflector + CMO.
Q06 Tarui Observatory, Tarui.  Observer H. Watanabe.  Measurers H. Watanabe,
    H. Watanabe.  0.35-m f/1.9 Schmidt-Cassegrain + CMO.
X09 Deep Random Survey, Rio Hurtado.  Observers A. Schnabel, D. Ruhela.
    Measurers S. Deen, A. Schnabel, D. Ruhela.  0.43-m reflector + CMOS.

Orbital elements:
2024 FC2                                                 Earth MOID = 0.1232 AU
Epoch 2024 Mar. 31.0 TT = JDT 2460400.5                 MPC                     
M 180.96404              (2000.0)            P               Q                  
n   1.12231987     Peri.  192.84308     +0.98514123     -0.16961528             
a   0.9170470      Node   176.55966     +0.16791160     +0.98419450             
e   0.2296814      Incl.   26.70797     -0.03608960     -0.05091025             
P   0.88           H   22.36          G   0.15           U   7                  
Residuals in seconds of arc
240320 G96  0.1-  0.1+    240320 I52  0.2+  0.1-    240321 H21  0.2+  0.1+
240320 G96  0.2+  0.1+    240320 I52  0.0   0.0     240321 Q06  0.0   0.3+
240320 G96  0.0   0.2-    240320 H36  0.1-  0.2-    240321 Q06  0.1-  0.3+
240320 G96  0.0   0.0     240320 K83  0.5-  0.4-    240321 Q06  0.2-  0.2+
240320 X09  0.4+  0.4-    240320 K83  0.7-  0.7-    240321 O46  0.1+  0.2+
240320 X09  0.0   0.1+    240320 K83  0.3-  0.0     240321 O46  0.2-  0.3-
240320 H21  0.1+  0.0     240320 L90  0.5+  0.5-    240321 O46  0.1-  1.0-
240320 H21  0.0   0.1-    240320 L90  0.2+  0.9+    240321 O46  0.1+  1.0+
240320 X09  0.3+  0.2-    240320 L34  0.6+  0.1-    240321 958  0.6+  0.7+
240320 H21  0.2-  0.0     240320 L90  0.0   0.4-    240321 958  0.1+  0.1+
240320 H21  0.1-  0.0     240320 C95  0.2-  0.5+    240321 958  0.3-  0.7-
240320 H21  0.0   0.1-    240321 C95  0.2-  0.1-    240321 G15  0.7-  0.3+
240320 X09  0.1-  0.6+    240321 C95  0.1+  0.5+    240321 G15  0.3-  0.7-
240320 H36  0.4+  0.1+    240321 L34  0.4+  0.2+    240322 K74  0.1-  0.1+
240320 I52  0.1-  0.0     240321 H21  0.1-  0.0     240322 K74  0.3+  0.1-
240320 I52  0.1-  0.2+    240321 H21  0.0   0.1-
240320 H36  0.1-  0.1-    240321 H21  0.1-  0.1-

Ephemeris:
2024 FC2                 a,e,i = 0.92, 0.23, 27                  q = 0.7064
Date    TT    R. A. (2000) Decl.     Delta      r    Elong.  Phase     V
2024 02 21    13 52 14.6 -43 58 55   0.2580  1.0891   106.2    60.7    21.8
...
2024 03 07    13 50 03.4 -23 55 29   0.1718  1.1134   131.4    42.0    20.4
...
2024 03 15    13 40 06.8 -03 24 47   0.1447  1.1216   149.5    26.8    19.6
...
2024 03 21    13 28 23.3 +15 14 30   0.1424  1.1254   153.6    23.1    19.5
2024 03 22    13 26 06.9 +18 17 21   0.1437  1.1259   152.6    24.0    19.5
2024 03 23    13 23 45.5 +21 15 34   0.1454  1.1263   151.2    25.2    19.6
...
2024 03 29    13 08 10.0 +36 42 17   0.1644  1.1276   139.0    35.5    20.2
...
2024 04 06    12 45 18.5 +50 10 26   0.2051  1.1264   123.3    47.9    21.0
...
2024 04 21    12 08 26.6 +61 06 50   0.2974  1.1149   104.0    61.0    22.1

A. U. Tomatic                (C) Copyright 2024 MPC           M.P.E.C. 2024-F66





More information about the Iaude mailing list